When you browse on this site, cookies collect data to enhance your experience and personalize the content and advertising you see.
Visit our Privacy Policy to learn more. By continuing to use the site, you agree to this use of cookies and data.
  • en France
  • Liste des pays
  • À 7 jours
  • Température de l'eau
  • Carte satellitaire
  • Carte météo
  • Widgets météo
  • user-avatar
    Se connecter

    Météo par heure à Busia

    Ce jour, 16 Juillet, Mardi

    Heure Température Précipitation Vent Pression Humidité
    00:00 +21°C° 0 mm 1 m/s 666 mmHg 80%
    01:00 +21°C° 0 mm 1 m/s 666 mmHg 80%
    02:00 +21°C° 0 mm 1 m/s 666 mmHg 81%
    03:00 +21°C° 0 mm 1 m/s 666 mmHg 82%
    04:00 +20°C° 0 mm 1 m/s 666 mmHg 83%
    05:00 +20°C° 0 mm 1 m/s 665 mmHg 85%
    06:00 +21°C° 0 mm 1 m/s 666 mmHg 81%
    07:00 +21°C° 0 mm 2 m/s 667 mmHg 77%
    08:00 +23°C° 0 mm 2 m/s 668 mmHg 74%
    09:00 +25°C° 0.3 mm 2 m/s 668 mmHg 67%
    10:00 +27°C° 0.3 mm 1 m/s 668 mmHg 61%
    11:00 +29°C° 0.3 mm 1 m/s 668 mmHg 55%
    12:00 +28°C° 0.8 mm 1 m/s 668 mmHg 58%
    13:00 +28°C° 0.8 mm 2 m/s 667 mmHg 61%
    14:00 +27°C° 0.8 mm 2 m/s 667 mmHg 64%
    15:00 +26°C° 1 mm 2 m/s 666 mmHg 69%
    16:00 +26°C° 1 mm 1 m/s 666 mmHg 74%
    17:00 +25°C° 1 mm 1 m/s 666 mmHg 78%
    18:00 +24°C° 0.2 mm 1 m/s 666 mmHg 80%
    19:00 +23°C° 0.2 mm 1 m/s 666 mmHg 81%
    20:00 +22°C° 0.2 mm 1 m/s 667 mmHg 83%
    21:00 +22°C° 0.1 mm 1 m/s 667 mmHg 83%
    22:00 +22°C° 0.1 mm 1 m/s 667 mmHg 83%
    23:00 +22°C° 0.1 mm 1 m/s 667 mmHg 83%

    Demain, 17 Juillet, Mercredi

    Heure Température Précipitation Vent Pression Humidité
    00:00 +21°C° 0.3 mm 1 m/s 667 mmHg 85%
    01:00 +21°C° 0.3 mm 1 m/s 666 mmHg 87%
    02:00 +19°C° 0.3 mm 2 m/s 666 mmHg 89%
    03:00 +19°C° 0 mm 2 m/s 666 mmHg 89%
    04:00 +18°C° 0 mm 2 m/s 666 mmHg 90%
    05:00 +18°C° 0 mm 2 m/s 666 mmHg 91%
    06:00 +19°C° 0 mm 2 m/s 666 mmHg 87%
    07:00 +20°C° 0 mm 2 m/s 667 mmHg 84%
    08:00 +23°C° 0 mm 2 m/s 668 mmHg 80%
    09:00 +24°C° 0.4 mm 1 m/s 668 mmHg 72%
    10:00 +26°C° 0.4 mm 1 m/s 668 mmHg 65%
    11:00 +26°C° 0.4 mm 0 m/s 669 mmHg 57%
    12:00 +28°C° 0.4 mm 1 m/s 668 mmHg 58%
    13:00 +28°C° 0.4 mm 2 m/s 667 mmHg 60%
    14:00 +27°C° 0.4 mm 2 m/s 667 mmHg 61%
    15:00 +26°C° 1 mm 2 m/s 667 mmHg 67%
    16:00 +25°C° 1 mm 2 m/s 666 mmHg 72%
    17:00 +25°C° 1 mm 1 m/s 666 mmHg 78%
    18:00 +24°C° 0.2 mm 1 m/s 666 mmHg 78%
    19:00 +23°C° 0.2 mm 1 m/s 666 mmHg 79%
    20:00 +22°C° 0.2 mm 1 m/s 666 mmHg 81%
    21:00 +21°C° 0 mm 1 m/s 666 mmHg 82%
    22:00 +21°C° 0 mm 1 m/s 666 mmHg 83%
    23:00 +21°C° 0 mm 1 m/s 666 mmHg 83%

    Après-demain, 18 Juillet, Jeudi

    Heure Température Précipitation Vent Pression Humidité
    00:00 +20°C° 0 mm 2 m/s 666 mmHg 84%
    01:00 +20°C° 0 mm 2 m/s 666 mmHg 84%
    02:00 +20°C° 0 mm 2 m/s 665 mmHg 84%
    03:00 +19°C° 0 mm 2 m/s 665 mmHg 85%
    04:00 +19°C° 0 mm 2 m/s 665 mmHg 86%
    05:00 +19°C° 0 mm 2 m/s 665 mmHg 87%
    06:00 +20°C° 0 mm 2 m/s 666 mmHg 83%
    07:00 +21°C° 0 mm 2 m/s 666 mmHg 80%
    08:00 +23°C° 0 mm 2 m/s 667 mmHg 76%
    09:00 +24°C° 0.3 mm 2 m/s 667 mmHg 70%
    10:00 +26°C° 0.3 mm 2 m/s 667 mmHg 65%
    11:00 +27°C° 0.3 mm 2 m/s 668 mmHg 59%
    12:00 +28°C° 0.3 mm 2 m/s 667 mmHg 57%
    13:00 +28°C° 0.3 mm 2 m/s 667 mmHg 55%
    14:00 +28°C° 0.3 mm 3 m/s 666 mmHg 53%
    15:00 +27°C° 0.1 mm 2 m/s 666 mmHg 58%
    16:00 +26°C° 0.1 mm 2 m/s 666 mmHg 63%
    17:00 +25°C° 0.1 mm 2 m/s 665 mmHg 68%
    18:00 +24°C° 0.1 mm 2 m/s 666 mmHg 71%
    19:00 +23°C° 0.1 mm 1 m/s 666 mmHg 75%
    20:00 +22°C° 0.1 mm 1 m/s 666 mmHg 78%
    21:00 +22°C° 0.1 mm 1 m/s 666 mmHg 79%
    22:00 +21°C° 0.1 mm 1 m/s 666 mmHg 79%
    23:00 +21°C° 0.1 mm 1 m/s 666 mmHg 80%

    19 Juillet, Vendredi

    Heure Température Précipitation Vent Pression Humidité
    00:00 +21°C° 0 mm 1 m/s 666 mmHg 79%
    01:00 +21°C° 0 mm 1 m/s 665 mmHg 79%
    02:00 +21°C° 0 mm 1 m/s 665 mmHg 79%
    03:00 +21°C° 0 mm 1 m/s 665 mmHg 79%
    04:00 +21°C° 0 mm 1 m/s 665 mmHg 79%
    05:00 +21°C° 0 mm 1 m/s 665 mmHg 79%
    06:00 +22°C° 0 mm 1 m/s 666 mmHg 78%
    07:00 +22°C° 0 mm 1 m/s 666 mmHg 76%
    08:00 +23°C° 0 mm 1 m/s 667 mmHg 74%
    09:00 +25°C° 0.3 mm 1 m/s 667 mmHg 69%
    10:00 +26°C° 0.3 mm 1 m/s 667 mmHg 64%
    11:00 +28°C° 0.3 mm 1 m/s 668 mmHg 59%
    12:00 +27°C° 1 mm 1 m/s 667 mmHg 60%
    13:00 +27°C° 1 mm 2 m/s 666 mmHg 61%
    14:00 +27°C° 1 mm 2 m/s 666 mmHg 61%
    15:00 +26°C° 0.8 mm 2 m/s 666 mmHg 66%
    16:00 +26°C° 0.8 mm 2 m/s 666 mmHg 71%
    17:00 +25°C° 0.8 mm 2 m/s 665 mmHg 75%
    18:00 +24°C° 0.1 mm 1 m/s 666 mmHg 77%
    19:00 +23°C° 0.1 mm 1 m/s 666 mmHg 78%
    20:00 +21°C° 0.1 mm 1 m/s 666 mmHg 80%
    21:00 +22°C° 0 mm 1 m/s 666 mmHg 80%
    22:00 +22°C° 0 mm 1 m/s 666 mmHg 80%
    23:00 +22°C° 0 mm 1 m/s 666 mmHg 80%

    20 Juillet, Samedi

    Heure Température Précipitation Vent Pression Humidité
    00:00 +21°C° 0 mm 1 m/s 666 mmHg 80%
    01:00 +21°C° 0 mm 1 m/s 665 mmHg 81%
    02:00 +21°C° 0 mm 1 m/s 665 mmHg 82%
    03:00 +21°C° 0 mm 1 m/s 665 mmHg 82%
    04:00 +21°C° 0 mm 1 m/s 665 mmHg 81%
    05:00 +21°C° 0 mm 1 m/s 665 mmHg 81%
    06:00 +22°C° 0 mm 1 m/s 666 mmHg 77%
    07:00 +23°C° 0 mm 1 m/s 666 mmHg 74%
    08:00 +24°C° 0 mm 1 m/s 667 mmHg 71%
    09:00 +25°C° 0.1 mm 2 m/s 667 mmHg 66%
    10:00 +27°C° 0.1 mm 2 m/s 667 mmHg 61%
    11:00 +28°C° 0.1 mm 2 m/s 668 mmHg 56%
    12:00 +28°C° 0.3 mm 2 m/s 667 mmHg 55%
    13:00 +29°C° 0.3 mm 2 m/s 667 mmHg 53%
    14:00 +29°C° 0.3 mm 2 m/s 666 mmHg 52%
    15:00 +28°C° 0.2 mm 2 m/s 666 mmHg 59%
    16:00 +27°C° 0.2 mm 2 m/s 666 mmHg 65%
    17:00 +26°C° 0.2 mm 2 m/s 665 mmHg 72%
    18:00 +25°C° 0.2 mm 2 m/s 666 mmHg 74%
    19:00 +23°C° 0.2 mm 1 m/s 666 mmHg 77%
    20:00 +22°C° 0.2 mm 1 m/s 666 mmHg 80%
    21:00 +22°C° 0.1 mm 1 m/s 666 mmHg 80%
    22:00 +20°C° 0.1 mm 0 m/s 666 mmHg 81%
    23:00 +19°C° 0.1 mm 0 m/s 666 mmHg 81%

    21 Juillet, Dimanche

    Heure Température Précipitation Vent Pression Humidité
    00:00 +21°C° 0.1 mm 1 m/s 666 mmHg 82%
    01:00 +21°C° 0.1 mm 1 m/s 665 mmHg 83%
    02:00 +21°C° 0.1 mm 1 m/s 665 mmHg 83%
    03:00 +21°C° 0 mm 1 m/s 665 mmHg 83%
    04:00 +20°C° 0 mm 2 m/s 665 mmHg 84%
    05:00 +20°C° 0 mm 2 m/s 665 mmHg 84%
    06:00 +21°C° 0 mm 2 m/s 666 mmHg 82%
    07:00 +22°C° 0 mm 1 m/s 666 mmHg 81%
    08:00 +23°C° 0 mm 1 m/s 667 mmHg 79%
    09:00 +24°C° 0.4 mm 1 m/s 667 mmHg 73%
    10:00 +26°C° 0.4 mm 1 m/s 667 mmHg 67%
    11:00 +27°C° 0.4 mm 1 m/s 667 mmHg 61%
    12:00 +28°C° 0.4 mm 2 m/s 667 mmHg 57%
    13:00 +28°C° 0.4 mm 2 m/s 667 mmHg 54%
    14:00 +28°C° 0.4 mm 2 m/s 666 mmHg 51%
    15:00 +28°C° 0.1 mm 2 m/s 666 mmHg 55%
    16:00 +27°C° 0.1 mm 2 m/s 666 mmHg 59%
    17:00 +26°C° 0.1 mm 2 m/s 666 mmHg 62%
    18:00 +25°C° 0 mm 1 m/s 666 mmHg 65%
    19:00 +24°C° 0 mm 1 m/s 666 mmHg 69%
    20:00 +22°C° 0 mm 1 m/s 666 mmHg 72%
    21:00 +22°C° 0 mm 1 m/s 666 mmHg 72%
    22:00 +22°C° 0 mm 1 m/s 666 mmHg 72%
    23:00 +22°C° 0 mm 1 m/s 666 mmHg 72%
    Voir plus